Location: Dallas
(32.7833°N, 96.8000°W)
Time: 21:49:46
(UTC-05:00)

Envisat - Visible Passes

Search period start: 30 June 2022 00:00
Search period end: 10 July 2022 00:00
Orbit: 764 x 765 km, 98.2° (Epoch: 30 June)

Date Brightness Start Highest point End Pass type
(mag) Time Alt. Az. Time Alt. Az. Time Alt. Az.
30 Jun 5.5 04:50:50 10° NE 04:54:07 17° E 04:57:25 10° SE visible
01 Jul 3.2 05:51:20 10° NNE 05:56:26 79° E 06:01:30 10° S visible
02 Jul 4.7 05:14:55 10° NE 05:19:26 32° E 05:23:56 10° SSE visible
03 Jul 5.7 04:40:01 10° ENE 04:42:15 13° E 04:44:29 10° ESE visible
04 Jul 3.6 05:39:37 10° NNE 05:44:39 60° E 05:49:38 10° S visible
05 Jul 5.1 05:03:30 10° NE 05:07:35 24° E 05:11:40 10° SSE visible
07 Jul 4.1 05:27:59 10° NNE 05:32:50 45° E 05:37:40 10° S visible
08 Jul 5.5 04:52:15 10° NE 04:55:44 18° E 04:59:12 10° SE visible
09 Jul 3.1 05:52:54 10° NNE 05:58:00 84° ESE 06:03:05 10° SSW visible
